Regional Weather Roundup
Issued by NWS

Home | Current Version | Previous Version | Text Only | Print | Product List | Glossary Off
Versions: 1 2 3 4 5 6 7 8 9 10 11 12 13 14 15 16 17 18 19 20 21 22 23 24 25 26 27 28 29 30 31 32 33 34 35 36 37 38 39 40 41 42 43 44 45 46 47 48 49 50

000
ASUS44 KMEG 161310
RWRTN
TENNESSEE HOURLY STATE WEATHER ROUNDUP
NATIONAL WEATHER SERVICE MEMPHIS TN
800 AM CDT TUE SEP 16 2014

TNZ002-004-019-021-049-052-054-088>092-161400-
WEST TENNESSEE

CITY           SKY/WX    TMP DP  RH WIND       PRES   REMARKS
MEMPHIS INTL   MOSUNNY   71  65  81 N5        30.12R
NWS MEMPHIS      N/A     68 N/A N/A MISG        N/A
JACKSON        CLOUDY    66  64  94 N7        30.13R
DYERSBURG      CLOUDY    66  55  68 N8        30.15S
UNION CITY     CLOUDY    63  61  94 N9        30.14S
PARIS          CLOUDY    63  61  94 N10       30.16R
HUNTINGDON     CLOUDY    65  63  93 N5        30.14R
LEXINGTON      SUNNY     64  63  94 CALM      30.12R
SAVANNAH       SUNNY     66  66 100 CALM      30.12S
$$

TNZ008-025-027-028-033-062-065-066-161400-
NORTH MIDDLE TENNESSEE

CITY           SKY/WX    TMP DP  RH WIND       PRES   REMARKS
NASHVILLE      PTSUNNY   69  64  84 VRB5      30.12S
DICKSON          N/A     64  63  94 N6        30.13R
PORTLAND       CLOUDY    64  63  94 N3        30.12R
CLARKSVILLE    CLOUDY    63  61  93 N10       30.14R FOG
LEBANON        CLOUDY    68  64  86 NW5       30.11R
SMYRNA         PTSUNNY   67  65  93 CALM      30.13S
MURFREESBORO   PTSUNNY   67  64  90 CALM      30.12S
COOKEVILLE     CLOUDY    66  66 100 CALM      30.12F
LIVINGSTON     CLOUDY    65  63  93 CALM      30.14
GALLATIN       CLOUDY    68  67  96 NW3       30.13R
CROSSVILLE     CLOUDY    68  61  78 NW5       30.16S
$$

TNZ061-075-076-078-094-096-097-161400-
SOUTH MIDDLE TENNESSEE

CITY           SKY/WX    TMP DP  RH WIND       PRES   REMARKS
LEWISBURG      PTSUNNY   65  64  96 CALM      30.12S
FAYETTEVILLE   SUNNY     68  64  88 N9G199    30.13S
TULLAHOMA      SUNNY     68  63  83 CALM      30.14S
WINCHESTER     CLOUDY    66  66 100 CALM      30.14S VSB 3/4
MCMINNVILLE    CLOUDY    70  70 100 CALM      30.13F
COLUMBIA       MOSUNNY   66  66 100 CALM      30.12R
SHELBYVILLE    PTSUNNY   66  64  94 CALM      30.14S
$$

TNZ017-018-042-046-047-161400-
NORTHEAST TENNESSEE

CITY           SKY/WX    TMP DP  RH WIND       PRES   REMARKS
TRI CITIES     CLOUDY    68  64  87 CALM      30.12S FOG
ELIZABETHTON   CLOUDY    63  63 100 CALM      30.13S
$$

TNZ012-013-036-069-073-074-161400-
CENTRAL EAST TENNESSEE

CITY           SKY/WX    TMP DP  RH WIND       PRES   REMARKS
KNOXVILLE      PTSUNNY   71  68  90 SW7       30.10S
OAK RIDGE      CLOUDY    72  66  81 CALM      30.12S
GATLINBURG     CLOUDY    68  64  88 CALM      30.10F
MORRISTOWN       N/A     70  70 100 W7        30.13S
$$

TNZ083-085-099-161400-
SOUTHEAST TENNESSEE

CITY           SKY/WX    TMP DP  RH WIND       PRES   REMARKS
CHATTANOOGA    FOG       71  69  93 CALM      30.11F VSB 1/4
$$

SKY/WX REPORTED AS FAIR MEANS FEW OR NO CLOUDS BELOW
12 THOUSAND FEET.



USA.gov is the U.S. government's official web portal to all federal, state and local government web resources and services.